Time,TemperatureF,DewpointF,PressureIn,WindDirection,WindDirectionDegrees,WindSpeedMPH,WindSpeedGustMPH,Humidity,HourlyPrecipIn,Conditions,Clouds,dailyrainin,SoftwareType,DateUTC
2013-08-23 00:01:00,72.7,67.6,29.82,NW,308,2.4,5.8,84,0.00,CLR,OVC,0.00,WeatherDisplay:10.37,2013-08-23 04:01:00,
2013-08-23 00:06:00,72.9,67.8,29.82,WSW,248,4.7,6.0,84,0.00,CLR,OVC,0.00,WeatherDisplay:10.37,2013-08-23 04:06:00,
2013-08-23 00:11:00,72.9,68.1,29.82,West,276,3.3,5.8,85,0.00,CLR,OVC,0.00,WeatherDisplay:10.37,2013-08-23 04:11:00,
2013-08-23 00:16:00,72.7,67.6,29.82,West,273,1.4,3.5,84,0.00,CLR,OVC,0.00,WeatherDisplay:10.37,2013-08-23 04:16:00,
2013-08-23 00:21:00,72.5,67.7,29.83,WSW,240,2.5,4.6,85,0.00,CLR,OVC,0.00,WeatherDisplay:10.37,2013-08-23 04:21:00,
2013-08-23 00:26:00,72.2,67.1,29.83,West,273,1.3,5.0,84,0.00,CLR,OVC,0.00,WeatherDisplay:10.37,2013-08-23 04:26:00,
2013-08-23 00:31:00,72.7,67.6,29.83,SSW,210,2.0,5.8,84,0.00,CLR,OVC,0.00,WeatherDisplay:10.37,2013-08-23 04:31:00,
2013-08-23 00:36:00,72.5,67.4,29.82,SW,232,2.3,4.0,84,0.00,CLR,OVC,0.00,WeatherDisplay:10.37,2013-08-23 04:36:00,
2013-08-23 00:41:00,72.5,67.7,29.82,WSW,245,2.5,3.5,85,0.00,CLR,OVC,0.00,WeatherDisplay:10.37,2013-08-23 04:41:00,
2013-08-23 00:46:00,72.2,67.4,29.82,WNW,285,2.7,6.9,85,0.00,CLR,OVC,0.00,WeatherDisplay:10.37,2013-08-23 04:46:00,
2013-08-23 00:51:00,72.5,67.7,29.82,WNW,284,0.8,3.5,85,0.00,CLR,OVC,0.00,WeatherDisplay:10.37,2013-08-23 04:51:00,
2013-08-23 00:56:00,72.3,67.5,29.82,West,281,2.1,5.8,85,0.00,CLR,OVC,0.00,WeatherDisplay:10.37,2013-08-23 04:56:00,
2013-08-23 01:01:00,72.0,67.2,29.82,SW,231,2.4,6.9,85,0.00,CLR,OVC,0.00,WeatherDisplay:10.37,2013-08-23 05:01:00,
2013-08-23 01:06:00,72.1,67.0,29.82,WSW,245,0.0,1.2,84,0.00,CLR,OVC,0.00,WeatherDisplay:10.37,2013-08-23 05:06:00,
2013-08-23 01:11:00,72.2,67.4,29.82,WSW,245,2.9,4.6,85,0.00,CLR,OVC,0.00,WeatherDisplay:10.37,2013-08-23 05:11:00,
2013-08-23 01:16:00,71.9,67.1,29.82,WSW,245,2.6,3.5,85,0.00,CLR,OVC,0.00,WeatherDisplay:10.37,2013-08-23 05:16:00,
2013-08-23 01:21:00,71.6,67.2,29.82,WSW,246,0.6,2.3,86,0.00,CLR,OVC,0.00,WeatherDisplay:10.37,2013-08-23 05:21:00,
2013-08-23 01:26:00,71.8,67.0,29.81,WSW,247,1.3,4.6,85,0.00,CLR,OVC,0.00,WeatherDisplay:10.37,2013-08-23 05:26:00,
2013-08-23 01:31:00,71.4,66.7,29.82,WSW,248,1.3,3.5,85,0.00,CLR,OVC,0.00,WeatherDisplay:10.37,2013-08-23 05:31:00,
2013-08-23 01:36:00,71.3,66.9,29.82,WSW,246,1.8,3.5,86,0.00,CLR,OVC,0.00,WeatherDisplay:10.37,2013-08-23 05:36:00,
2013-08-23 01:41:00,71.6,66.8,29.82,WSW,246,0.0,2.3,85,0.00,CLR,OVC,0.00,WeatherDisplay:10.37,2013-08-23 05:41:00,
2013-08-23 01:46:00,71.7,67.3,29.82,WSW,246,0.8,3.5,86,0.00,CLR,OVC,0.00,WeatherDisplay:10.37,2013-08-23 05:46:00,
2013-08-23 01:51:00,71.2,66.8,29.82,WSW,246,0.4,2.3,86,0.00,CLR,OVC,0.00,WeatherDisplay:10.37,2013-08-23 05:51:00,
2013-08-23 01:56:00,71.5,66.8,29.83,WSW,247,0.6,3.5,85,0.00,CLR,OVC,0.00,WeatherDisplay:10.37,2013-08-23 05:56:00,
2013-08-23 02:01:00,71.8,67.4,29.83,WSW,247,0.7,3.5,86,0.00,CLR,OVC,0.00,WeatherDisplay:10.37,2013-08-23 06:01:00,
2013-08-23 02:06:00,71.6,67.5,29.83,WSW,246,0.1,1.2,87,0.00,CLR,OVC,0.00,WeatherDisplay:10.37,2013-08-23 06:06:00,
2013-08-23 02:11:00,71.2,67.1,29.83,WSW,247,0.2,1.2,87,0.00,CLR,OVC,0.00,WeatherDisplay:10.37,2013-08-23 06:11:00,
2013-08-23 02:16:00,71.2,67.1,29.82,WSW,247,0.0,1.2,87,0.00,CLR,OVC,0.00,WeatherDisplay:10.37,2013-08-23 06:16:00,
2013-08-23 02:21:00,71.2,67.1,29.82,WSW,246,0.1,2.3,87,0.00,CLR,OVC,0.00,WeatherDisplay:10.37,2013-08-23 06:21:00,
2013-08-23 02:26:00,71.2,67.1,29.83,WSW,248,0.0,0.0,87,0.00,CLR,OVC,0.00,WeatherDisplay:10.37,2013-08-23 06:26:00,
2013-08-23 02:31:00,70.6,65.9,29.82,WSW,246,0.0,0.0,85,0.00,CLR,OVC,0.00,WeatherDisplay:10.37,2013-08-23 06:31:00,
2013-08-23 02:36:00,70.6,66.2,29.82,WSW,247,0.0,1.2,86,0.00,CLR,OVC,0.00,WeatherDisplay:10.37,2013-08-23 06:36:00,
2013-08-23 02:41:00,70.7,66.3,29.82,WSW,248,0.2,2.3,86,0.00,CLR,OVC,0.00,WeatherDisplay:10.37,2013-08-23 06:41:00,
2013-08-23 02:46:00,70.6,66.2,29.82,WSW,247,1.1,3.5,86,0.00,CLR,OVC,0.00,WeatherDisplay:10.37,2013-08-23 06:46:00,
2013-08-23 02:51:00,70.9,66.5,29.82,WSW,247,0.8,3.5,86,0.00,CLR,OVC,0.00,WeatherDisplay:10.37,2013-08-23 06:51:00,
2013-08-23 02:56:00,70.8,66.1,29.82,WSW,247,0.0,3.5,85,0.00,CLR,OVC,0.00,WeatherDisplay:10.37,2013-08-23 06:56:00,
2013-08-23 03:01:00,70.1,65.4,29.83,WSW,257,2.1,3.5,85,0.00,CLR,OVC,0.00,WeatherDisplay:10.37,2013-08-23 07:01:00,
2013-08-23 03:06:00,70.9,65.8,29.82,WSW,257,0.1,1.2,84,0.00,CLR,OVC,0.00,WeatherDisplay:10.37,2013-08-23 07:06:00,
2013-08-23 03:11:00,70.9,65.5,29.82,WSW,256,1.4,3.5,83,0.00,CLR,OVC,0.00,WeatherDisplay:10.37,2013-08-23 07:11:00,
2013-08-23 03:16:00,70.8,65.4,29.82,NW,323,3.1,3.5,83,0.00,CLR,OVC,0.00,WeatherDisplay:10.37,2013-08-23 07:16:00,
2013-08-23 03:21:00,71.2,65.4,29.82,NW,323,0.0,0.0,82,0.00,CLR,OVC,0.00,WeatherDisplay:10.37,2013-08-23 07:21:00,
2013-08-23 03:26:00,70.8,65.0,29.83,NW,323,2.1,3.5,82,0.00,CLR,OVC,0.00,WeatherDisplay:10.37,2013-08-23 07:26:00,
2013-08-23 03:31:00,71.0,64.5,29.83,NW,323,0.5,2.3,80,0.00,CLR,OVC,0.00,WeatherDisplay:10.37,2013-08-23 07:31:00,
2013-08-23 03:36:00,71.3,64.8,29.83,NW,321,3.1,4.6,80,0.00,CLR,OVC,0.00,WeatherDisplay:10.37,2013-08-23 07:36:00,
2013-08-23 03:41:00,70.7,64.2,29.83,NW,316,3.9,8.1,80,0.00,CLR,OVC,0.00,WeatherDisplay:10.37,2013-08-23 07:41:00,
2013-08-23 03:46:00,70.9,64.1,29.82,NW,310,1.2,3.5,79,0.00,CLR,OVC,0.00,WeatherDisplay:10.37,2013-08-23 07:46:00,
2013-08-23 03:51:00,71.2,64.0,29.83,WNW,296,3.3,4.6,78,0.00,CLR,OVC,0.00,WeatherDisplay:10.37,2013-08-23 07:51:00,
2013-08-23 03:56:00,70.9,64.1,29.82,WNW,296,1.9,3.5,79,0.00,CLR,OVC,0.00,WeatherDisplay:10.37,2013-08-23 07:56:00,
2013-08-23 04:02:00,71.1,63.9,29.83,WNW,302,3.1,6.9,78,0.00,CLR,OVC,0.00,WeatherDisplay:10.37,2013-08-23 08:02:00,
2013-08-23 04:07:00,71.0,63.4,29.83,NNW,331,2.8,4.6,77,0.00,CLR,OVC,0.00,WeatherDisplay:10.37,2013-08-23 08:07:00,
2013-08-23 04:12:00,71.0,63.1,29.82,NNW,335,1.1,5.8,76,0.00,CLR,OVC,0.00,WeatherDisplay:10.37,2013-08-23 08:12:00,
2013-08-23 04:17:00,70.8,62.9,29.83,WNW,303,2.9,4.6,76,0.00,CLR,OVC,0.00,WeatherDisplay:10.37,2013-08-23 08:17:00,
2013-08-23 04:22:00,70.5,62.6,29.83,North,359,2.2,4.6,76,0.00,CLR,OVC,0.00,WeatherDisplay:10.37,2013-08-23 08:22:00,
2013-08-23 04:27:00,70.5,62.6,29.83,West,262,3.7,11.5,76,0.00,CLR,OVC,0.00,WeatherDisplay:10.37,2013-08-23 08:27:00,
2013-08-23 04:32:00,70.2,62.6,29.83,North,357,4.3,4.3,77,0.00,CLR,OVC,0.00,WeatherDisplay:10.37,2013-08-23 08:32:00,
2013-08-23 04:37:00,70.2,62.6,29.83,NNW,348,1.4,4.0,77,0.00,CLR,OVC,0.00,WeatherDisplay:10.37,2013-08-23 08:37:00,
2013-08-23 04:42:00,70.2,62.6,29.83,WNW,296,4.0,5.8,77,0.00,CLR,OVC,0.00,WeatherDisplay:10.37,2013-08-23 08:42:00,
2013-08-23 04:47:00,70.0,62.5,29.84,NW,305,0.5,3.5,77,0.00,CLR,OVC,0.00,WeatherDisplay:10.37,2013-08-23 08:47:00,
2013-08-23 04:52:00,69.4,61.9,29.84,NW,318,2.3,5.8,77,0.00,CLR,OVC,0.00,WeatherDisplay:10.37,2013-08-23 08:52:00,
2013-08-23 04:57:00,70.0,62.5,29.84,NNW,341,2.1,5.8,77,0.00,CLR,OVC,0.00,WeatherDisplay:10.37,2013-08-23 08:57:00,
2013-08-23 05:02:00,69.7,61.8,29.84,WNW,284,3.5,5.8,76,0.00,CLR,OVC,0.00,WeatherDisplay:10.37,2013-08-23 09:02:00,
2013-08-23 05:07:00,69.5,61.6,29.84,WNW,293,3.0,6.9,76,0.00,CLR,OVC,0.00,WeatherDisplay:10.37,2013-08-23 09:07:00,
2013-08-23 05:12:00,69.6,61.7,29.84,NW,318,3.5,5.8,76,0.00,CLR,OVC,0.00,WeatherDisplay:10.37,2013-08-23 09:12:00,
2013-08-23 05:17:00,69.6,61.7,29.84,NW,316,1.2,5.8,76,0.00,CLR,OVC,0.00,WeatherDisplay:10.37,2013-08-23 09:17:00,
2013-08-23 05:22:00,69.3,61.4,29.84,NW,325,0.6,1.2,76,0.00,CLR,OVC,0.00,WeatherDisplay:10.37,2013-08-23 09:22:00,
2013-08-23 05:27:00,69.6,62.1,29.84,NW,304,2.1,4.6,77,0.00,CLR,OVC,0.00,WeatherDisplay:10.37,2013-08-23 09:27:00,
2013-08-23 05:32:00,69.5,62.0,29.85,North,355,1.6,3.5,77,0.00,CLR,OVC,0.00,WeatherDisplay:10.37,2013-08-23 09:32:00,
2013-08-23 05:37:00,69.1,61.6,29.84,North,354,2.2,4.6,77,0.00,CLR,OVC,0.00,WeatherDisplay:10.37,2013-08-23 09:37:00,
2013-08-23 05:42:00,69.2,61.3,29.85,NNW,336,0.0,0.0,76,0.00,CLR,OVC,0.00,WeatherDisplay:10.37,2013-08-23 09:42:00,
2013-08-23 05:47:00,68.9,61.4,29.85,WNW,301,2.7,5.8,77,0.00,CLR,OVC,0.00,WeatherDisplay:10.37,2013-08-23 09:47:00,
2013-08-23 05:52:00,68.3,60.8,29.86,NW,308,0.8,3.5,77,0.00,CLR,OVC,0.00,WeatherDisplay:10.37,2013-08-23 09:52:00,
2013-08-23 05:57:00,68.5,61.0,29.85,NW,307,0.2,0.0,77,0.00,CLR,OVC,0.00,WeatherDisplay:10.37,2013-08-23 09:57:00,
2013-08-23 06:02:00,68.8,61.3,29.86,NW,307,0.3,2.3,77,0.00,CLR,OVC,0.00,WeatherDisplay:10.37,2013-08-23 10:02:00,
2013-08-23 06:07:00,68.7,61.2,29.86,NW,308,0.0,3.5,77,0.00,CLR,OVC,0.00,WeatherDisplay:10.37,2013-08-23 10:07:00,
2013-08-23 06:12:00,68.5,61.0,29.86,NW,308,0.2,2.3,77,0.00,CLR,OVC,0.00,WeatherDisplay:10.37,2013-08-23 10:12:00,
2013-08-23 06:17:00,68.4,60.9,29.86,NW,308,0.0,0.0,77,0.00,CLR,OVC,0.00,WeatherDisplay:10.37,2013-08-23 10:17:00,
2013-08-23 06:22:00,68.5,61.0,29.87,NW,311,0.3,2.3,77,0.00,CLR,OVC,0.00,WeatherDisplay:10.37,2013-08-23 10:22:00,
2013-08-23 06:27:00,68.0,60.5,29.87,NW,311,1.7,3.0,77,0.00,CLR,OVC,0.00,WeatherDisplay:10.37,2013-08-23 10:27:00,
2013-08-23 06:32:00,67.9,60.4,29.87,NW,311,2.0,3.5,77,0.00,CLR,OVC,0.00,WeatherDisplay:10.37,2013-08-23 10:32:00,
2013-08-23 06:37:00,68.3,60.4,29.88,NW,308,0.3,3.5,76,0.00,CLR,OVC,0.00,WeatherDisplay:10.37,2013-08-23 10:37:00,
2013-08-23 06:42:00,68.5,60.6,29.88,NNW,328,2.6,5.8,76,0.00,CLR,OVC,0.00,WeatherDisplay:10.37,2013-08-23 10:42:00,
2013-08-23 06:47:00,69.0,60.7,29.88,North,358,1.2,8.1,75,0.00,CLR,OVC,0.00,WeatherDisplay:10.37,2013-08-23 10:47:00,
2013-08-23 06:52:00,68.4,60.2,29.87,North,359,1.1,4.0,75,0.00,CLR,OVC,0.00,WeatherDisplay:10.37,2013-08-23 10:52:00,
2013-08-23 06:57:00,68.5,60.3,29.89,West,273,1.4,3.5,75,0.00,CLR,OVC,0.00,WeatherDisplay:10.37,2013-08-23 10:57:00,
2013-08-23 07:02:00,69.0,60.7,29.89,NNW,343,0.7,2.3,75,0.00,CLR,OVC,0.00,WeatherDisplay:10.37,2013-08-23 11:02:00,
2013-08-23 07:07:00,68.8,60.2,29.89,NNW,343,0.6,1.2,74,0.00,CLR,OVC,0.00,WeatherDisplay:10.37,2013-08-23 11:07:00,
2013-08-23 07:12:00,68.9,60.3,29.89,North,359,0.4,1.2,74,0.00,CLR,OVC,0.00,WeatherDisplay:10.37,2013-08-23 11:12:00,
2013-08-23 07:17:00,69.0,60.4,29.89,NNE,16,0.0,3.5,74,0.00,CLR,OVC,0.00,WeatherDisplay:10.37,2013-08-23 11:17:00,
2013-08-23 07:22:00,69.5,60.5,29.90,North,349,0.8,6.0,73,0.00,CLR,OVC,0.00,WeatherDisplay:10.37,2013-08-23 11:22:00,
2013-08-23 07:27:00,69.8,60.4,29.90,North,352,3.3,5.8,72,0.00,CLR,OVC,0.00,WeatherDisplay:10.37,2013-08-23 11:27:00,
2013-08-23 07:32:00,69.4,59.6,29.90,NNW,347,3.6,4.6,71,0.00,CLR,OVC,0.00,WeatherDisplay:10.37,2013-08-23 11:32:00,
2013-08-23 07:37:00,69.9,60.1,29.91,NNW,346,1.9,1.9,71,0.00,CLR,OVC,0.00,WeatherDisplay:10.37,2013-08-23 11:37:00,
2013-08-23 07:42:00,70.1,60.7,29.92,North,2,1.4,2.3,72,0.00,CLR,OVC,0.00,WeatherDisplay:10.37,2013-08-23 11:42:00,
2013-08-23 07:47:00,70.0,60.2,29.91,NNW,334,1.1,5.8,71,0.00,CLR,OVC,0.00,WeatherDisplay:10.37,2013-08-23 11:47:00,
2013-08-23 07:52:00,70.7,61.2,29.91,NNW,328,0.9,4.6,72,0.00,CLR,OVC,0.00,WeatherDisplay:10.37,2013-08-23 11:52:00,
2013-08-23 07:57:00,70.9,60.2,29.91,North,359,3.2,4.6,69,0.00,CLR,OVC,0.00,WeatherDisplay:10.37,2013-08-23 11:57:00,
2013-08-23 08:02:00,71.5,60.8,29.91,North,359,0.7,3.5,69,0.00,CLR,OVC,0.00,WeatherDisplay:10.37,2013-08-23 12:02:00,
2013-08-23 08:07:00,71.9,61.2,29.91,North,353,1.4,3.5,69,0.00,CLR,OVC,0.00,WeatherDisplay:10.37,2013-08-23 12:07:00,
2013-08-23 08:12:00,71.9,60.8,29.92,NW,320,0.3,6.9,68,0.00,CLR,OVC,0.00,WeatherDisplay:10.37,2013-08-23 12:12:00,
2013-08-23 08:17:00,72.5,61.3,29.92,NNE,27,3.1,3.1,68,0.00,CLR,OVC,0.00,WeatherDisplay:10.37,2013-08-23 12:17:00,
2013-08-23 08:22:00,73.2,60.7,29.92,NW,322,2.9,6.9,65,0.00,CLR,OVC,0.00,WeatherDisplay:10.37,2013-08-23 12:22:00,
2013-08-23 08:27:00,73.1,60.6,29.92,NNW,336,2.7,4.6,65,0.00,CLR,OVC,0.00,WeatherDisplay:10.37,2013-08-23 12:27:00,
2013-08-23 08:32:00,73.1,60.6,29.92,North,359,0.9,3.5,65,0.00,CLR,OVC,0.00,WeatherDisplay:10.37,2013-08-23 12:32:00,
2013-08-23 08:37:00,73.6,60.2,29.92,NE,38,2.7,8.1,63,0.00,CLR,OVC,0.00,WeatherDisplay:10.37,2013-08-23 12:37:00,
2013-08-23 08:42:00,73.9,60.1,29.92,NNW,341,7.1,16.1,62,0.00,CLR,OVC,0.00,WeatherDisplay:10.37,2013-08-23 12:42:00,
2013-08-23 08:47:00,73.7,59.4,29.92,West,262,3.8,6.9,61,0.00,CLR,OVC,0.00,WeatherDisplay:10.37,2013-08-23 12:47:00,
2013-08-23 08:52:00,74.3,60.0,29.93,NNE,20,6.2,11.5,61,0.00,CLR,OVC,0.00,WeatherDisplay:10.37,2013-08-23 12:52:00,
2013-08-23 08:57:00,74.4,59.6,29.93,NNW,330,5.0,9.2,60,0.00,CLR,OVC,0.00,WeatherDisplay:10.37,2013-08-23 12:57:00,
2013-08-23 09:02:00,74.5,59.7,29.93,North,357,4.7,9.2,60,0.00,CLR,OVC,0.00,WeatherDisplay:10.37,2013-08-23 13:02:00,
2013-08-23 09:07:00,75.0,60.2,29.94,North,8,4.9,8.1,60,0.00,CLR,OVC,0.00,WeatherDisplay:10.37,2013-08-23 13:07:00,
2013-08-23 09:12:00,74.8,59.5,29.94,NNW,347,4.1,11.5,59,0.00,CLR,OVC,0.00,WeatherDisplay:10.37,2013-08-23 13:12:00,
2013-08-23 09:17:00,75.0,60.6,29.93,NNW,337,2.7,6.9,61,0.00,CLR,OVC,0.00,WeatherDisplay:10.37,2013-08-23 13:17:00,
2013-08-23 09:23:00,75.0,60.6,29.93,NNE,26,2.4,4.6,61,0.00,CLR,OVC,0.00,WeatherDisplay:10.37,2013-08-23 13:23:00,
2013-08-23 09:28:00,74.7,60.4,29.93,ENE,74,1.1,3.5,61,0.00,CLR,OVC,0.00,WeatherDisplay:10.37,2013-08-23 13:28:00,
2013-08-23 09:33:00,73.9,60.1,29.94,North,352,4.9,9.2,62,0.00,CLR,OVC,0.00,WeatherDisplay:10.37,2013-08-23 13:33:00,
2013-08-23 09:38:00,73.9,60.1,29.94,North,357,3.2,5.8,62,0.00,CLR,OVC,0.00,WeatherDisplay:10.37,2013-08-23 13:38:00,
2013-08-23 09:43:00,73.2,59.4,29.94,NNW,334,4.8,5.8,62,0.00,CLR,OVC,0.00,WeatherDisplay:10.37,2013-08-23 13:43:00,
2013-08-23 09:48:00,73.3,59.5,29.94,WNW,297,2.1,3.5,62,0.00,CLR,OVC,0.00,WeatherDisplay:10.37,2013-08-23 13:48:00,
2013-08-23 09:53:00,74.1,59.8,29.95,North,1,7.3,11.5,61,0.00,CLR,OVC,0.00,WeatherDisplay:10.37,2013-08-23 13:53:00,
2013-08-23 09:58:00,74.0,60.2,29.95,NNE,21,4.1,9.2,62,0.00,CLR,OVC,0.00,WeatherDisplay:10.37,2013-08-23 13:58:00,
2013-08-23 10:03:00,74.9,60.5,29.95,North,4,2.5,3.5,61,0.00,CLR,OVC,0.00,WeatherDisplay:10.37,2013-08-23 14:03:00,
2013-08-23 10:08:00,74.8,59.0,29.95,NNW,339,2.8,8.1,58,0.00,CLR,OVC,0.00,WeatherDisplay:10.37,2013-08-23 14:08:00,
2013-08-23 10:13:00,74.9,59.6,29.95,North,349,5.3,9.2,59,0.00,CLR,OVC,0.00,WeatherDisplay:10.37,2013-08-23 14:13:00,
2013-08-23 10:18:00,74.9,59.6,29.95,NNW,340,5.9,6.9,59,0.00,CLR,OVC,0.00,WeatherDisplay:10.37,2013-08-23 14:18:00,
2013-08-23 10:23:00,74.6,59.8,29.95,North,353,3.8,6.9,60,0.00,CLR,OVC,0.00,WeatherDisplay:10.37,2013-08-23 14:23:00,
2013-08-23 10:28:00,74.3,58.6,29.95,North,4,5.8,8.1,58,0.00,CLR,OVC,0.00,WeatherDisplay:10.37,2013-08-23 14:28:00,
2013-08-23 10:33:00,74.7,60.4,29.96,NNW,342,2.2,10.0,61,0.00,CLR,OVC,0.00,WeatherDisplay:10.37,2013-08-23 14:33:00,
2013-08-23 10:38:00,75.6,59.8,29.96,NNE,13,3.6,6.9,58,0.00,CLR,OVC,0.00,WeatherDisplay:10.37,2013-08-23 14:38:00,
2013-08-23 10:43:00,75.6,60.3,29.96,NW,320,3.0,4.6,59,0.00,CLR,OVC,0.00,WeatherDisplay:10.37,2013-08-23 14:43:00,
2013-08-23 10:48:00,75.9,60.1,29.96,ENE,75,5.1,8.1,58,0.00,CLR,OVC,0.00,WeatherDisplay:10.37,2013-08-23 14:48:00,
2013-08-23 10:53:00,75.7,59.4,29.96,North,356,3.9,9.2,57,0.00,CLR,OVC,0.00,WeatherDisplay:10.37,2013-08-23 14:53:00,
2013-08-23 10:58:00,75.6,60.3,29.96,North,1,2.4,4.6,59,0.00,CLR,OVC,0.00,WeatherDisplay:10.37,2013-08-23 14:58:00,
2013-08-23 11:03:00,76.9,59.5,29.96,North,5,5.2,8.1,55,0.00,CLR,OVC,0.00,WeatherDisplay:10.37,2013-08-23 15:03:00,
2013-08-23 11:08:00,76.9,59.5,29.96,North,349,2.1,5.8,55,0.00,CLR,OVC,0.00,WeatherDisplay:10.37,2013-08-23 15:08:00,
2013-08-23 11:13:00,77.3,59.9,29.96,North,2,4.9,10.4,55,0.00,CLR,OVC,0.00,WeatherDisplay:10.37,2013-08-23 15:13:00,
2013-08-23 11:18:00,77.3,58.8,29.97,NW,323,3.2,8.1,53,0.00,CLR,OVC,0.00,WeatherDisplay:10.37,2013-08-23 15:18:00,
2013-08-23 11:23:00,77.3,58.3,29.96,North,359,3.0,5.8,52,0.00,CLR,OVC,0.00,WeatherDisplay:10.37,2013-08-23 15:23:00,
2013-08-23 11:28:00,78.1,57.4,29.95,NNW,335,4.9,9.2,49,0.00,CLR,OVC,0.00,WeatherDisplay:10.37,2013-08-23 15:28:00,
2013-08-23 11:33:00,78.3,58.7,29.95,North,1,3.8,9.2,51,0.00,CLR,OVC,0.00,WeatherDisplay:10.37,2013-08-23 15:33:00,
2013-08-23 11:38:00,78.3,57.0,29.96,North,5,3.8,8.1,48,0.00,CLR,OVC,0.00,WeatherDisplay:10.37,2013-08-23 15:38:00,
2013-08-23 11:43:00,78.4,57.7,29.95,East,80,3.7,4.6,49,0.00,CLR,OVC,0.00,WeatherDisplay:10.37,2013-08-23 15:43:00,
2013-08-23 11:48:00,79.3,57.3,29.96,North,350,5.2,11.0,47,0.00,CLR,OVC,0.00,WeatherDisplay:10.37,2013-08-23 15:48:00,
2013-08-23 11:53:00,79.2,57.2,29.95,NNW,348,1.4,5.8,47,0.00,CLR,OVC,0.00,WeatherDisplay:10.37,2013-08-23 15:53:00,
2013-08-23 11:58:00,79.9,58.5,29.95,NNE,33,2.7,7.0,48,0.00,CLR,OVC,0.00,WeatherDisplay:10.37,2013-08-23 15:58:00,
2013-08-23 12:03:00,80.4,56.5,29.95,NW,313,4.4,6.9,44,0.00,CLR,OVC,0.00,WeatherDisplay:10.37,2013-08-23 16:03:00,
2013-08-23 12:08:00,80.2,56.3,29.95,NNW,335,5.9,10.4,44,0.00,CLR,OVC,0.00,WeatherDisplay:10.37,2013-08-23 16:08:00,
2013-08-23 12:13:00,78.5,56.0,29.95,North,353,2.1,5.8,46,0.00,CLR,OVC,0.00,WeatherDisplay:10.37,2013-08-23 16:13:00,
2013-08-23 12:18:00,79.2,57.2,29.95,North,355,4.6,6.9,47,0.00,CLR,OVC,0.00,WeatherDisplay:10.37,2013-08-23 16:18:00,
2013-08-23 12:23:00,80.3,58.2,29.95,NNW,334,0.4,3.5,47,0.00,CLR,OVC,0.00,WeatherDisplay:10.37,2013-08-23 16:23:00,
2013-08-23 12:28:00,80.4,57.7,29.94,North,359,2.2,8.1,46,0.00,CLR,OVC,0.00,WeatherDisplay:10.37,2013-08-23 16:28:00,
2013-08-23 12:33:00,80.8,59.3,29.95,North,354,4.1,4.1,48,0.00,CLR,OVC,0.00,WeatherDisplay:10.37,2013-08-23 16:33:00,
2013-08-23 12:38:00,81.5,58.7,29.95,North,1,1.7,5.8,46,0.00,CLR,OVC,0.00,WeatherDisplay:10.37,2013-08-23 16:38:00,
2013-08-23 12:43:00,82.1,60.5,29.95,North,8,1.9,4.6,48,0.00,CLR,OVC,0.00,WeatherDisplay:10.37,2013-08-23 16:43:00,
2013-08-23 12:48:00,81.7,58.3,29.96,NE,48,2.9,5.8,45,0.00,CLR,OVC,0.00,WeatherDisplay:10.37,2013-08-23 16:48:00,
2013-08-23 12:53:00,82.5,57.7,29.94,NE,34,3.8,5.0,43,0.00,CLR,OVC,0.00,WeatherDisplay:10.37,2013-08-23 16:53:00,
2013-08-23 12:58:00,82.1,56.1,29.95,NW,314,8.2,11.5,41,0.00,CLR,OVC,0.00,WeatherDisplay:10.37,2013-08-23 16:58:00,
2013-08-23 13:03:00,81.5,56.8,29.95,North,357,2.7,4.6,43,0.00,CLR,OVC,0.00,WeatherDisplay:10.37,2013-08-23 17:03:00,
2013-08-23 13:08:00,81.4,58.0,29.95,NNE,16,1.6,3.5,45,0.00,CLR,OVC,0.00,WeatherDisplay:10.37,2013-08-23 17:08:00,
2013-08-23 13:13:00,82.2,57.5,29.95,NNW,332,4.8,4.8,43,0.00,CLR,OVC,0.00,WeatherDisplay:10.37,2013-08-23 17:13:00,
2013-08-23 13:18:00,82.5,56.4,29.96,NNW,346,7.7,8.0,41,0.00,CLR,OVC,0.00,WeatherDisplay:10.37,2013-08-23 17:18:00,
2013-08-23 13:23:00,82.0,56.0,29.95,WNW,296,4.6,8.1,41,0.00,CLR,OVC,0.00,WeatherDisplay:10.37,2013-08-23 17:23:00,
2013-08-23 13:28:00,82.2,56.2,29.95,NNW,334,5.9,5.9,41,0.00,CLR,OVC,0.00,WeatherDisplay:10.37,2013-08-23 17:28:00,
2013-08-23 13:33:00,82.5,55.7,29.95,North,353,4.9,6.9,40,0.00,CLR,OVC,0.00,WeatherDisplay:10.37,2013-08-23 17:33:00,
2013-08-23 13:38:00,82.4,56.3,29.95,North,350,2.8,6.9,41,0.00,CLR,OVC,0.00,WeatherDisplay:10.37,2013-08-23 17:38:00,
2013-08-23 13:43:00,79.9,54.1,29.95,North,358,4.8,6.9,41,0.00,CLR,OVC,0.00,WeatherDisplay:10.37,2013-08-23 17:43:00,
2013-08-23 13:48:00,79.4,55.6,29.95,NNE,22,0.3,1.2,44,0.00,CLR,OVC,0.00,WeatherDisplay:10.37,2013-08-23 17:48:00,
2013-08-23 13:53:00,79.6,54.5,29.96,North,10,6.5,10.4,42,0.00,CLR,OVC,0.00,WeatherDisplay:10.37,2013-08-23 17:53:00,
2013-08-23 13:58:00,79.6,55.8,29.95,NW,318,4.3,5.8,44,0.00,CLR,OVC,0.00,WeatherDisplay:10.37,2013-08-23 17:58:00,
2013-08-23 14:03:00,80.5,56.6,29.95,NE,55,4.4,10.4,44,0.00,CLR,OVC,0.00,WeatherDisplay:10.37,2013-08-23 18:03:00,
2013-08-23 14:08:00,81.1,57.1,29.95,NE,41,3.0,4.6,44,0.00,CLR,OVC,0.00,WeatherDisplay:10.37,2013-08-23 18:08:00,
2013-08-23 14:13:00,81.9,57.8,29.96,ESE,102,3.5,6.9,44,0.00,CLR,OVC,0.00,WeatherDisplay:10.37,2013-08-23 18:13:00,
2013-08-23 14:18:00,82.4,58.3,29.96,East,79,4.1,6.9,44,0.00,CLR,OVC,0.00,WeatherDisplay:10.37,2013-08-23 18:18:00,
2013-08-23 14:23:00,81.9,59.7,29.96,SSE,161,0.9,2.3,47,0.00,CLR,OVC,0.00,WeatherDisplay:10.37,2013-08-23 18:23:00,
2013-08-23 14:28:00,82.1,58.7,29.96,East,94,3.3,4.6,45,0.00,CLR,OVC,0.00,WeatherDisplay:10.37,2013-08-23 18:28:00,
2013-08-23 14:33:00,81.9,57.8,29.96,ESE,119,4.0,6.9,44,0.00,CLR,OVC,0.00,WeatherDisplay:10.37,2013-08-23 18:33:00,
2013-08-23 14:38:00,80.2,57.5,29.97,ESE,118,1.4,3.5,46,0.00,CLR,OVC,0.00,WeatherDisplay:10.37,2013-08-23 18:38:00,
2013-08-23 14:43:00,81.5,58.1,29.97,ESE,114,3.0,4.6,45,0.00,CLR,OVC,0.00,WeatherDisplay:10.37,2013-08-23 18:43:00,
2013-08-23 14:49:00,81.3,57.3,29.97,ENE,74,1.9,4.6,44,0.00,CLR,OVC,0.00,WeatherDisplay:10.37,2013-08-23 18:49:00,
2013-08-23 14:54:00,81.3,57.9,29.97,ENE,67,1.8,3.5,45,0.00,CLR,OVC,0.00,WeatherDisplay:10.37,2013-08-23 18:54:00,
2013-08-23 14:59:00,81.2,58.5,29.97,East,92,3.7,5.8,46,0.00,CLR,OVC,0.00,WeatherDisplay:10.37,2013-08-23 18:59:00,
2013-08-23 15:04:00,82.4,58.9,29.97,East,84,3.7,5.8,45,0.00,CLR,OVC,0.00,WeatherDisplay:10.37,2013-08-23 19:04:00,
2013-08-23 15:09:00,82.2,58.1,29.97,ENE,62,4.3,6.9,44,0.00,CLR,OVC,0.00,WeatherDisplay:10.37,2013-08-23 19:09:00,
2013-08-23 15:14:00,80.6,57.3,29.98,East,87,3.1,5.8,45,0.00,CLR,OVC,0.00,WeatherDisplay:10.37,2013-08-23 19:14:00,
2013-08-23 15:19:00,80.5,57.2,29.97,ENE,75,2.0,4.6,45,0.00,CLR,OVC,0.00,WeatherDisplay:10.37,2013-08-23 19:19:00,
2013-08-23 15:24:00,80.6,58.5,29.98,NE,44,0.8,3.5,47,0.00,CLR,OVC,0.00,WeatherDisplay:10.37,2013-08-23 19:24:00,
2013-08-23 15:29:00,81.0,58.3,29.97,ESE,116,3.2,4.6,46,0.00,CLR,OVC,0.00,WeatherDisplay:10.37,2013-08-23 19:29:00,
2013-08-23 15:34:00,80.5,57.2,29.97,ESE,115,1.1,3.5,45,0.00,CLR,OVC,0.00,WeatherDisplay:10.37,2013-08-23 19:34:00,
2013-08-23 15:39:00,80.5,57.8,29.97,ESE,123,1.0,2.3,46,0.00,CLR,OVC,0.00,WeatherDisplay:10.37,2013-08-23 19:39:00,
2013-08-23 15:44:00,81.2,58.5,29.97,ESE,121,1.8,3.5,46,0.00,CLR,OVC,0.00,WeatherDisplay:10.37,2013-08-23 19:44:00,
2013-08-23 15:49:00,81.7,58.9,29.97,ESE,121,1.0,2.3,46,0.00,CLR,OVC,0.00,WeatherDisplay:10.37,2013-08-23 19:49:00,
2013-08-23 15:54:00,80.9,56.9,29.97,ESE,122,1.5,3.5,44,0.00,CLR,OVC,0.00,WeatherDisplay:10.37,2013-08-23 19:54:00,
2013-08-23 15:59:00,80.6,57.9,29.98,ESE,121,3.0,4.6,46,0.00,CLR,OVC,0.00,WeatherDisplay:10.37,2013-08-23 19:59:00,
2013-08-23 16:04:00,80.2,57.5,29.98,ESE,105,1.8,4.6,46,0.00,CLR,OVC,0.00,WeatherDisplay:10.37,2013-08-23 20:04:00,
2013-08-23 16:09:00,80.7,58.0,29.98,ENE,72,2.1,3.5,46,0.00,CLR,OVC,0.00,WeatherDisplay:10.37,2013-08-23 20:09:00,
2013-08-23 16:14:00,79.6,56.4,29.98,ENE,75,2.4,3.5,45,0.00,CLR,OVC,0.00,WeatherDisplay:10.37,2013-08-23 20:14:00,
2013-08-23 16:19:00,80.4,57.7,29.99,ENE,75,1.6,3.5,46,0.00,CLR,OVC,0.00,WeatherDisplay:10.37,2013-08-23 20:19:00,
2013-08-23 16:24:00,80.0,56.1,29.98,East,95,2.1,5.0,44,0.00,CLR,OVC,0.00,WeatherDisplay:10.37,2013-08-23 20:24:00,
2013-08-23 16:29:00,79.4,55.6,29.98,East,98,0.6,1.2,44,0.00,CLR,OVC,0.00,WeatherDisplay:10.37,2013-08-23 20:29:00,
2013-08-23 16:34:00,79.3,56.1,29.98,ENE,72,1.0,5.8,45,0.00,CLR,OVC,0.00,WeatherDisplay:10.37,2013-08-23 20:34:00,
2013-08-23 16:39:00,79.0,56.5,29.97,ENE,71,0.9,3.5,46,0.00,CLR,OVC,0.00,WeatherDisplay:10.37,2013-08-23 20:39:00,
2013-08-23 16:44:00,79.4,56.8,29.98,ENE,77,0.8,3.5,46,0.00,CLR,OVC,0.00,WeatherDisplay:10.37,2013-08-23 20:44:00,
2013-08-23 16:49:00,79.4,56.2,29.99,ENE,78,1.5,3.5,45,0.00,CLR,OVC,0.00,WeatherDisplay:10.37,2013-08-23 20:49:00,
2013-08-23 16:54:00,79.6,57.6,29.98,East,80,1.3,3.5,47,0.00,CLR,OVC,0.00,WeatherDisplay:10.37,2013-08-23 20:54:00,
2013-08-23 16:59:00,79.6,56.4,29.98,East,79,2.0,3.5,45,0.00,CLR,OVC,0.00,WeatherDisplay:10.37,2013-08-23 20:59:00,
2013-08-23 17:04:00,79.3,56.1,29.99,East,83,2.9,6.9,45,0.00,CLR,OVC,0.00,WeatherDisplay:10.37,2013-08-23 21:04:00,
2013-08-23 17:09:00,79.1,55.9,29.99,East,84,2.2,3.5,45,0.00,CLR,OVC,0.00,WeatherDisplay:10.37,2013-08-23 21:09:00,
2013-08-23 17:14:00,78.6,55.5,29.99,East,83,0.2,2.3,45,0.00,CLR,OVC,0.00,WeatherDisplay:10.37,2013-08-23 21:14:00,
2013-08-23 17:19:00,78.4,54.0,29.99,East,83,1.6,3.5,43,0.00,CLR,OVC,0.00,WeatherDisplay:10.37,2013-08-23 21:19:00,
2013-08-23 17:24:00,78.2,54.5,29.99,East,83,0.7,2.0,44,0.00,CLR,OVC,0.00,WeatherDisplay:10.37,2013-08-23 21:24:00,
2013-08-23 17:29:00,77.4,53.8,29.99,East,82,0.5,1.2,44,0.00,CLR,OVC,0.00,WeatherDisplay:10.37,2013-08-23 21:29:00,
2013-08-23 17:34:00,78.2,55.1,30.00,East,81,1.4,3.5,45,0.00,CLR,OVC,0.00,WeatherDisplay:10.37,2013-08-23 21:34:00,
2013-08-23 17:39:00,77.4,55.0,29.99,East,82,1.0,2.3,46,0.00,CLR,OVC,0.00,WeatherDisplay:10.37,2013-08-23 21:39:00,
2013-08-23 17:44:00,77.4,54.4,29.99,East,82,0.2,2.3,45,0.00,CLR,OVC,0.00,WeatherDisplay:10.37,2013-08-23 21:44:00,
2013-08-23 17:49:00,77.1,55.3,30.00,East,81,2.2,3.5,47,0.00,CLR,OVC,0.00,WeatherDisplay:10.37,2013-08-23 21:49:00,
2013-08-23 17:54:00,76.9,55.7,30.01,East,81,1.4,2.3,48,0.00,CLR,OVC,0.00,WeatherDisplay:10.37,2013-08-23 21:54:00,
2013-08-23 17:59:00,76.0,54.9,30.00,East,82,0.0,1.2,48,0.00,CLR,OVC,0.00,WeatherDisplay:10.37,2013-08-23 21:59:00,
2013-08-23 18:04:00,75.8,57.4,30.00,East,82,0.0,0.0,53,0.00,CLR,OVC,0.00,WeatherDisplay:10.37,2013-08-23 22:04:00,
2013-08-23 18:09:00,75.3,56.5,30.00,East,82,0.0,0.0,52,0.00,CLR,OVC,0.00,WeatherDisplay:10.37,2013-08-23 22:09:00,
2013-08-23 18:14:00,74.8,58.5,30.01,East,82,0.0,0.0,57,0.00,CLR,OVC,0.00,WeatherDisplay:10.37,2013-08-23 22:14:00,
2013-08-23 18:19:00,74.2,58.9,30.01,East,82,0.0,0.0,59,0.00,CLR,OVC,0.00,WeatherDisplay:10.37,2013-08-23 22:19:00,
2013-08-23 18:24:00,73.7,58.0,30.01,East,82,1.2,1.2,58,0.00,CLR,OVC,0.00,WeatherDisplay:10.37,2013-08-23 22:24:00,
2013-08-23 18:29:00,74.0,59.2,30.01,East,82,0.0,1.2,60,0.00,CLR,OVC,0.00,WeatherDisplay:10.37,2013-08-23 22:29:00,
2013-08-23 18:34:00,74.8,58.5,30.01,East,82,0.0,0.0,57,0.00,CLR,OVC,0.00,WeatherDisplay:10.37,2013-08-23 22:34:00,
2013-08-23 18:39:00,75.1,58.8,30.01,East,82,0.0,0.0,57,0.00,CLR,OVC,0.00,WeatherDisplay:10.37,2013-08-23 22:39:00,
2013-08-23 18:44:00,75.3,60.0,30.02,East,81,0.0,0.0,59,0.00,CLR,OVC,0.00,WeatherDisplay:10.37,2013-08-23 22:44:00,
2013-08-23 18:49:00,74.1,58.9,30.02,East,82,0.0,2.3,59,0.00,CLR,OVC,0.00,WeatherDisplay:10.37,2013-08-23 22:49:00,
2013-08-23 18:54:00,73.8,58.6,30.02,East,81,0.0,0.0,59,0.00,CLR,OVC,0.00,WeatherDisplay:10.37,2013-08-23 22:54:00,
2013-08-23 18:59:00,73.2,58.0,30.02,East,82,0.0,0.0,59,0.00,CLR,OVC,0.00,WeatherDisplay:10.37,2013-08-23 22:59:00,
2013-08-23 19:04:00,72.7,58.5,30.02,East,82,0.0,0.0,61,0.00,CLR,OVC,0.00,WeatherDisplay:10.37,2013-08-23 23:04:00,
2013-08-23 19:09:00,71.9,56.3,30.02,East,81,0.0,0.0,58,0.00,CLR,OVC,0.00,WeatherDisplay:10.37,2013-08-23 23:09:00,
2013-08-23 19:14:00,71.5,56.9,30.02,East,82,0.0,0.0,60,0.00,CLR,OVC,0.00,WeatherDisplay:10.37,2013-08-23 23:14:00,
2013-08-23 19:19:00,71.0,56.9,30.03,East,82,0.0,0.0,61,0.00,CLR,OVC,0.00,WeatherDisplay:10.37,2013-08-23 23:19:00,
2013-08-23 19:24:00,70.6,57.4,30.03,East,82,0.0,0.0,63,0.00,CLR,OVC,0.00,WeatherDisplay:10.37,2013-08-23 23:24:00,
2013-08-23 19:29:00,70.1,57.3,30.03,East,82,0.0,0.0,64,0.00,CLR,OVC,0.00,WeatherDisplay:10.37,2013-08-23 23:29:00,
2013-08-23 19:34:00,69.4,57.1,30.03,East,81,0.0,0.0,65,0.00,CLR,OVC,0.00,WeatherDisplay:10.37,2013-08-23 23:34:00,
2013-08-23 19:39:00,69.2,56.5,30.03,East,81,0.0,0.0,64,0.00,CLR,OVC,0.00,WeatherDisplay:10.37,2013-08-23 23:39:00,
2013-08-23 19:44:00,68.7,56.5,30.03,East,82,0.0,0.0,65,0.00,CLR,OVC,0.00,WeatherDisplay:10.37,2013-08-23 23:44:00,
2013-08-23 19:49:00,68.2,56.0,30.02,East,82,0.0,0.0,65,0.00,CLR,OVC,0.00,WeatherDisplay:10.37,2013-08-23 23:49:00,
2013-08-23 19:54:00,68.0,55.8,30.03,East,82,0.0,0.0,65,0.00,CLR,OVC,0.00,WeatherDisplay:10.37,2013-08-23 23:54:00,
2013-08-23 19:59:00,67.7,56.0,30.03,East,82,0.0,0.0,66,0.00,CLR,OVC,0.00,WeatherDisplay:10.37,2013-08-23 23:59:00,
2013-08-23 20:04:00,67.1,55.8,30.03,East,82,0.0,0.0,67,0.00,CLR,OVC,0.00,WeatherDisplay:10.37,2013-08-24 00:04:00,
2013-08-23 20:09:00,67.0,56.1,30.04,East,82,0.0,0.0,68,0.00,CLR,OVC,0.00,WeatherDisplay:10.37,2013-08-24 00:09:00,
2013-08-23 20:14:00,66.8,55.9,30.04,East,82,0.0,0.0,68,0.00,CLR,OVC,0.00,WeatherDisplay:10.37,2013-08-24 00:14:00,
2013-08-23 20:19:00,66.5,56.0,30.04,East,81,0.0,0.0,69,0.00,CLR,OVC,0.00,WeatherDisplay:10.37,2013-08-24 00:19:00,
2013-08-23 20:24:00,66.2,55.7,30.05,East,82,0.0,0.0,69,0.00,CLR,OVC,0.00,WeatherDisplay:10.37,2013-08-24 00:24:00,
2013-08-23 20:29:00,66.0,55.2,30.05,East,82,0.0,0.0,68,0.00,CLR,OVC,0.00,WeatherDisplay:10.37,2013-08-24 00:29:00,
2013-08-23 20:34:00,66.1,55.6,30.05,East,83,0.0,0.0,69,0.00,CLR,OVC,0.00,WeatherDisplay:10.37,2013-08-24 00:34:00,
2013-08-23 20:39:00,65.7,56.1,30.05,East,82,0.0,0.0,71,0.00,CLR,OVC,0.00,WeatherDisplay:10.37,2013-08-24 00:39:00,
2013-08-23 20:44:00,65.3,55.3,30.05,East,82,0.0,0.0,70,0.00,CLR,OVC,0.00,WeatherDisplay:10.37,2013-08-24 00:44:00,
2013-08-23 20:49:00,65.4,56.1,30.06,East,82,0.0,0.0,72,0.00,CLR,OVC,0.00,WeatherDisplay:10.37,2013-08-24 00:49:00,
2013-08-23 20:54:00,64.9,55.7,30.06,East,82,0.0,0.0,72,0.00,CLR,OVC,0.00,WeatherDisplay:10.37,2013-08-24 00:54:00,
2013-08-23 20:59:00,64.5,56.4,30.06,East,83,0.0,0.0,75,0.00,CLR,OVC,0.00,WeatherDisplay:10.37,2013-08-24 00:59:00,
2013-08-23 21:04:00,64.7,56.6,30.07,East,82,0.0,0.0,75,0.00,CLR,OVC,0.00,WeatherDisplay:10.37,2013-08-24 01:04:00,
2013-08-23 21:09:00,64.1,56.0,30.07,East,82,0.0,0.0,75,0.00,CLR,OVC,0.00,WeatherDisplay:10.37,2013-08-24 01:09:00,
2013-08-23 21:14:00,63.8,55.7,30.07,East,82,0.0,0.0,75,0.00,CLR,OVC,0.00,WeatherDisplay:10.37,2013-08-24 01:14:00,
2013-08-23 21:19:00,63.6,55.5,30.07,East,81,0.0,0.0,75,0.00,CLR,OVC,0.00,WeatherDisplay:10.37,2013-08-24 01:19:00,
2013-08-23 21:24:00,63.4,55.3,30.07,East,82,0.0,0.0,75,0.00,CLR,OVC,0.00,WeatherDisplay:10.37,2013-08-24 01:24:00,
2013-08-23 21:29:00,63.4,55.7,30.07,East,82,0.0,0.0,76,0.00,CLR,OVC,0.00,WeatherDisplay:10.37,2013-08-24 01:29:00,
2013-08-23 21:34:00,63.3,54.9,30.08,East,81,0.0,0.0,74,0.00,CLR,OVC,0.00,WeatherDisplay:10.37,2013-08-24 01:34:00,
2013-08-23 21:39:00,63.0,54.6,30.08,East,82,0.0,0.0,74,0.00,CLR,OVC,0.00,WeatherDisplay:10.37,2013-08-24 01:39:00,
2013-08-23 21:44:00,62.7,54.3,30.08,East,82,0.0,0.0,74,0.00,CLR,OVC,0.00,WeatherDisplay:10.37,2013-08-24 01:44:00,
2013-08-23 21:49:00,62.5,54.5,30.08,East,82,0.0,0.0,75,0.00,CLR,OVC,0.00,WeatherDisplay:10.37,2013-08-24 01:49:00,
2013-08-23 21:54:00,62.3,54.7,30.08,East,82,0.0,0.0,76,0.00,CLR,OVC,0.00,WeatherDisplay:10.37,2013-08-24 01:54:00,
2013-08-23 21:59:00,62.2,55.6,30.09,East,82,0.0,0.0,79,0.00,CLR,OVC,0.00,WeatherDisplay:10.37,2013-08-24 01:59:00,
2013-08-23 22:04:00,62.0,55.0,30.09,East,82,0.0,0.0,78,0.00,CLR,OVC,0.00,WeatherDisplay:10.37,2013-08-24 02:04:00,
2013-08-23 22:09:00,61.9,54.6,30.09,East,83,0.0,0.0,77,0.00,CLR,OVC,0.00,WeatherDisplay:10.37,2013-08-24 02:09:00,
2013-08-23 22:14:00,61.6,55.0,30.09,East,82,0.0,0.0,79,0.00,CLR,OVC,0.00,WeatherDisplay:10.37,2013-08-24 02:14:00,
2013-08-23 22:19:00,61.5,55.3,30.09,East,81,0.0,0.0,80,0.00,CLR,OVC,0.00,WeatherDisplay:10.37,2013-08-24 02:19:00,
2013-08-23 22:24:00,61.3,55.1,30.10,East,83,0.0,0.0,80,0.00,CLR,OVC,0.00,WeatherDisplay:10.37,2013-08-24 02:24:00,
2013-08-23 22:29:00,61.2,55.0,30.09,East,81,0.0,0.0,80,0.00,CLR,OVC,0.00,WeatherDisplay:10.37,2013-08-24 02:29:00,
2013-08-23 22:34:00,60.7,53.8,30.10,East,82,0.0,0.0,78,0.00,CLR,OVC,0.00,WeatherDisplay:10.37,2013-08-24 02:34:00,
2013-08-23 22:39:00,60.4,53.2,30.10,East,82,0.0,0.0,77,0.00,CLR,OVC,0.00,WeatherDisplay:10.37,2013-08-24 02:39:00,
2013-08-23 22:44:00,60.1,53.2,30.10,East,83,0.0,0.0,78,0.00,CLR,OVC,0.00,WeatherDisplay:10.37,2013-08-24 02:44:00,
2013-08-23 22:49:00,60.2,54.0,30.11,East,82,0.0,0.0,80,0.00,CLR,OVC,0.00,WeatherDisplay:10.37,2013-08-24 02:49:00,
2013-08-23 22:54:00,59.7,53.5,30.11,East,82,0.0,0.0,80,0.00,CLR,OVC,0.00,WeatherDisplay:10.37,2013-08-24 02:54:00,
2013-08-23 22:59:00,60.0,53.4,30.11,East,82,0.0,0.0,79,0.00,CLR,OVC,0.00,WeatherDisplay:10.37,2013-08-24 02:59:00,
2013-08-23 23:04:00,60.0,53.5,30.11,East,82,0.0,0.0,79,0.00,CLR,OVC,0.00,WeatherDisplay:10.37,2013-08-24 03:04:00,
2013-08-23 23:09:00,59.7,53.2,30.12,East,82,0.0,0.0,79,0.00,CLR,OVC,0.00,WeatherDisplay:10.37,2013-08-24 03:09:00,
2013-08-23 23:14:00,59.5,53.0,30.12,East,82,0.0,0.0,79,0.00,CLR,OVC,0.00,WeatherDisplay:10.37,2013-08-24 03:14:00,
2013-08-23 23:19:00,59.3,52.8,30.12,East,82,0.0,0.0,79,0.00,CLR,OVC,0.00,WeatherDisplay:10.37,2013-08-24 03:19:00,
2013-08-23 23:24:00,59.1,52.9,30.12,East,82,0.0,0.0,80,0.00,CLR,OVC,0.00,WeatherDisplay:10.37,2013-08-24 03:24:00,
2013-08-23 23:29:00,58.5,52.4,30.12,East,82,0.0,0.0,80,0.00,CLR,OVC,0.00,WeatherDisplay:10.37,2013-08-24 03:29:00,
2013-08-23 23:34:00,58.6,52.1,30.13,East,81,0.0,0.0,79,0.00,CLR,OVC,0.00,WeatherDisplay:10.37,2013-08-24 03:34:00,
2013-08-23 23:39:00,58.7,52.2,30.13,East,82,0.0,0.0,79,0.00,CLR,OVC,0.00,WeatherDisplay:10.37,2013-08-24 03:39:00,
2013-08-23 23:44:00,58.4,51.9,30.13,East,82,0.0,0.0,79,0.00,CLR,OVC,0.00,WeatherDisplay:10.37,2013-08-24 03:44:00,
2013-08-23 23:49:00,57.9,51.8,30.14,East,82,0.0,0.0,80,0.00,CLR,OVC,0.00,WeatherDisplay:10.37,2013-08-24 03:49:00,
2013-08-23 23:54:00,58.2,52.0,30.13,East,82,0.0,0.0,80,0.00,CLR,OVC,0.00,WeatherDisplay:10.37,2013-08-24 03:54:00,
2013-08-23 23:59:00,58.0,51.9,30.14,East,82,0.0,0.0,80,0.00,CLR,OVC,0.00,WeatherDisplay:10.37,2013-08-24 03:59:00,